Terminal Aerodrome Forecast
Issued by NWS Sterling, VA

Current Version | Previous Version | Graphics & Text | Print | Product List | Glossary On
Versions: 1 2 3 4 5 6 7 8 9 10 11 12 13 14 15 16 17 18 19 20 21 22 23
000
FTUS41 KLWX 191500 AAA
TAFIAD
TAF AMD
KIAD 191536Z 1916/2018 05007KT P6SM BKN250
     FM192100 03010KT P6SM BKN250
     FM200100 02008KT P6SM SCT250
     FM200800 01004KT P6SM FEW250=

USA.gov is the U.S. government's official web portal to all federal, state and local government web resources and services.